sat.trackr.live / text

‹ back to catalog

UNKNOWN

NORAD 82798

UNKNOWN UNKNOWN UNKNOWN

§ Identity

Operator
Country
Launch date
Launch site
Launch vehicle
Mass (kg)
RCS (m²)

External: N2YO · Heavens-Above

§ Orbital elements

Epoch: 2026-05-18T01:39:40.703040Z

Period
101.15 min
Inclination
82.9499°
Eccentricity
0.0032544
Mean motion
14.23609079 rev/d
Perigee alt
789.8 km
Apogee alt
836.6 km
Semi-major
7,191.3 km
B*
5.3119e-4
RAAN
66.4223°
Arg perigee
57.1113°
Mean anomaly
322.0063°
Rev number
33,461

§ Raw data

UNKNOWN1 82798U          26138.06922110  .00001233  00000+0  53119-3 0  99952 82798  82.9499  66.4223 0032544  57.1113 322.0063 14.23609079334610

JSON: /api/v1/satellites/82798 · /tle

For live sub-satellite position, see the globe view (requires WebGL).

§ Visibility from observer

Set your observer location to see the next 7 days of passes ≥ 10°. The values pass through the URL so the page stays shareable.

No JS? Fill the form by hand. The geolocation button needs JavaScript.